• In Deutschland
  • Länderverzeichnis
  • Für 7 Tage
  • Wassertemperatur
  • Satellitenkarten
  • Wetterkarte
  • Widgets
  • user-avatar
    Anmelden

    Stündliche Wetter Pabna

    Heute, 16 August, Mittwoch

    Zeit Temperatur Niederschläge Wind Luftdruck Luftfeuchtigkeit
    00:00 +30°C° 0 mm 3 m/S 750 mmHg 81%
    01:00 +30°C° 0,3 mm 3 m/S 749 mmHg 82%
    02:00 +30°C° 0,3 mm 3 m/S 749 mmHg 83%
    03:00 +29°C° 0,3 mm 3 m/S 749 mmHg 84%
    04:00 +29°C° 0,1 mm 3 m/S 749 mmHg 85%
    05:00 +29°C° 0,1 mm 2 m/S 749 mmHg 85%
    06:00 +29°C° 0 mm 2 m/S 749 mmHg 86%
    07:00 +30°C° 0 mm 2 m/S 749 mmHg 81%
    08:00 +31°C° 0 mm 2 m/S 749 mmHg 77%
    09:00 +34°C° 0 mm 3 m/S 749 mmHg 72%
    10:00 +35°C° 1,1 mm 3 m/S 749 mmHg 68%
    11:00 +36°C° 1,1 mm 3 m/S 749 mmHg 63%
    12:00 +36°C° 0 mm 2 m/S 749 mmHg 59%
    13:00 +36°C° 1,6 mm 2 m/S 748 mmHg 59%
    14:00 +36°C° 1,6 mm 2 m/S 748 mmHg 59%
    15:00 +37°C° 1,6 mm 2 m/S 747 mmHg 59%
    16:00 +36°C° 0,8 mm 2 m/S 747 mmHg 63%
    17:00 +35°C° 0,8 mm 2 m/S 747 mmHg 67%
    18:00 +34°C° 0,8 mm 2 m/S 747 mmHg 71%
    19:00 +34°C° 0,7 mm 2 m/S 747 mmHg 74%
    20:00 +32°C° 0,7 mm 2 m/S 747 mmHg 77%
    21:00 +31°C° 0,7 mm 2 m/S 748 mmHg 81%
    22:00 +31°C° 0,6 mm 2 m/S 748 mmHg 81%
    23:00 +30°C° 0,6 mm 2 m/S 748 mmHg 82%

    Morgen, 17 August, Donnerstag

    Zeit Temperatur Niederschläge Wind Luftdruck Luftfeuchtigkeit
    00:00 +30°C° 0,6 mm 2 m/S 748 mmHg 83%
    01:00 +30°C° 0,7 mm 2 m/S 747 mmHg 84%
    02:00 +30°C° 0,7 mm 2 m/S 747 mmHg 84%
    03:00 +30°C° 0,7 mm 2 m/S 747 mmHg 85%
    04:00 +30°C° 1,9 mm 1 m/S 747 mmHg 84%
    05:00 +30°C° 1,9 mm 1 m/S 747 mmHg 84%
    06:00 +30°C° 1,9 mm 1 m/S 747 mmHg 83%
    07:00 +31°C° 0,5 mm 2 m/S 748 mmHg 79%
    08:00 +33°C° 0,5 mm 3 m/S 748 mmHg 75%
    09:00 +34°C° 0,5 mm 4 m/S 748 mmHg 70%
    10:00 +35°C° 1,5 mm 4 m/S 748 mmHg 68%
    11:00 +36°C° 1,5 mm 4 m/S 748 mmHg 67%
    12:00 +36°C° 1,5 mm 5 m/S 748 mmHg 65%
    13:00 +36°C° 0,9 mm 5 m/S 747 mmHg 65%
    14:00 +36°C° 0,9 mm 5 m/S 746 mmHg 65%
    15:00 +36°C° 0,9 mm 5 m/S 746 mmHg 65%
    16:00 +35°C° 1,1 mm 4 m/S 745 mmHg 69%
    17:00 +35°C° 1,1 mm 4 m/S 745 mmHg 72%
    18:00 +34°C° 1,1 mm 3 m/S 745 mmHg 76%
    19:00 +33°C° 0,4 mm 3 m/S 746 mmHg 79%
    20:00 +31°C° 0,4 mm 3 m/S 747 mmHg 82%
    21:00 +31°C° 0,4 mm 3 m/S 747 mmHg 85%
    22:00 +30°C° 0,1 mm 3 m/S 748 mmHg 86%
    23:00 +30°C° 0,1 mm 3 m/S 748 mmHg 87%

    übermorgen, 18 August, Freitag

    Zeit Temperatur Niederschläge Wind Luftdruck Luftfeuchtigkeit
    00:00 +30°C° 0,1 mm 3 m/S 748 mmHg 88%
    01:00 +29°C° 0 mm 3 m/S 748 mmHg 89%
    02:00 +29°C° 0 mm 3 m/S 748 mmHg 89%
    03:00 +29°C° 0 mm 3 m/S 748 mmHg 90%
    04:00 +29°C° 0 mm 3 m/S 748 mmHg 90%
    05:00 +29°C° 0 mm 3 m/S 748 mmHg 90%
    06:00 +29°C° 0 mm 3 m/S 748 mmHg 90%
    07:00 +30°C° 0 mm 4 m/S 749 mmHg 85%
    08:00 +32°C° 0 mm 4 m/S 749 mmHg 80%
    09:00 +33°C° 0 mm 5 m/S 750 mmHg 75%
    10:00 +34°C° 0,4 mm 5 m/S 749 mmHg 72%
    11:00 +35°C° 0,4 mm 5 m/S 749 mmHg 68%
    12:00 +36°C° 0,4 mm 5 m/S 749 mmHg 65%
    13:00 +36°C° 0,5 mm 6 m/S 748 mmHg 64%
    14:00 +36°C° 0,5 mm 6 m/S 747 mmHg 63%
    15:00 +38°C° 0,5 mm 6 m/S 747 mmHg 62%
    16:00 +36°C° 0,3 mm 5 m/S 747 mmHg 66%
    17:00 +35°C° 0,3 mm 4 m/S 747 mmHg 69%
    18:00 +34°C° 0,3 mm 4 m/S 747 mmHg 73%
    19:00 +33°C° 0,1 mm 3 m/S 748 mmHg 76%
    20:00 +33°C° 0,1 mm 3 m/S 748 mmHg 79%
    21:00 +31°C° 0,1 mm 3 m/S 749 mmHg 82%
    22:00 +31°C° 0 mm 3 m/S 749 mmHg 83%
    23:00 +30°C° 0 mm 3 m/S 749 mmHg 84%

    19 August, Samstag

    Zeit Temperatur Niederschläge Wind Luftdruck Luftfeuchtigkeit
    00:00 +30°C° 0 mm 3 m/S 750 mmHg 86%
    01:00 +30°C° 0,1 mm 3 m/S 749 mmHg 86%
    02:00 +30°C° 0,1 mm 3 m/S 749 mmHg 87%
    03:00 +29°C° 0,1 mm 3 m/S 749 mmHg 88%
    04:00 +29°C° 0 mm 3 m/S 749 mmHg 88%
    05:00 +29°C° 0 mm 3 m/S 749 mmHg 89%
    06:00 +29°C° 0 mm 3 m/S 749 mmHg 89%
    07:00 +30°C° 0,1 mm 3 m/S 750 mmHg 84%
    08:00 +33°C° 0,1 mm 4 m/S 750 mmHg 78%
    09:00 +34°C° 0,1 mm 5 m/S 751 mmHg 72%
    10:00 +35°C° 0,5 mm 5 m/S 750 mmHg 68%
    11:00 +36°C° 0,5 mm 5 m/S 750 mmHg 64%
    12:00 +37°C° 0,5 mm 5 m/S 750 mmHg 60%
    13:00 +37°C° 0,4 mm 5 m/S 749 mmHg 59%
    14:00 +37°C° 0,4 mm 5 m/S 748 mmHg 59%
    15:00 +37°C° 0,4 mm 5 m/S 748 mmHg 58%
    16:00 +36°C° 0,4 mm 4 m/S 748 mmHg 62%
    17:00 +35°C° 0,4 mm 4 m/S 748 mmHg 66%
    18:00 +35°C° 0,4 mm 3 m/S 748 mmHg 70%
    19:00 +34°C° 0,5 mm 3 m/S 748 mmHg 74%
    20:00 +32°C° 0,5 mm 2 m/S 749 mmHg 78%
    21:00 +31°C° 0,5 mm 2 m/S 750 mmHg 82%
    22:00 +30°C° 0 mm 2 m/S 750 mmHg 83%
    23:00 +30°C° 0 mm 2 m/S 750 mmHg 84%

    20 August, Sonntag

    Zeit Temperatur Niederschläge Wind Luftdruck Luftfeuchtigkeit
    00:00 +30°C° 0 mm 3 m/S 750 mmHg 86%
    01:00 +30°C° 0 mm 2 m/S 750 mmHg 86%
    02:00 +29°C° 0 mm 2 m/S 749 mmHg 87%
    03:00 +29°C° 0 mm 2 m/S 749 mmHg 88%
    04:00 +29°C° 0 mm 2 m/S 749 mmHg 88%
    05:00 +29°C° 0 mm 2 m/S 750 mmHg 88%
    06:00 +29°C° 0 mm 2 m/S 750 mmHg 89%
    07:00 +30°C° 0,3 mm 3 m/S 750 mmHg 83%
    08:00 +31°C° 0,3 mm 3 m/S 751 mmHg 77%
    09:00 +34°C° 0,3 mm 4 m/S 751 mmHg 71%
    10:00 +35°C° 0,1 mm 4 m/S 750 mmHg 67%
    11:00 +36°C° 0,1 mm 4 m/S 750 mmHg 62%
    12:00 +37°C° 0,1 mm 4 m/S 749 mmHg 58%
    13:00 +37°C° 0,3 mm 4 m/S 749 mmHg 58%
    14:00 +37°C° 0,3 mm 4 m/S 748 mmHg 58%
    15:00 +37°C° 0,3 mm 4 m/S 747 mmHg 58%
    16:00 +36°C° 0,1 mm 3 m/S 747 mmHg 62%
    17:00 +35°C° 0,1 mm 3 m/S 747 mmHg 65%
    18:00 +35°C° 0,1 mm 3 m/S 747 mmHg 68%
    19:00 +34°C° 0 mm 3 m/S 747 mmHg 71%
    20:00 +33°C° 0 mm 3 m/S 748 mmHg 75%
    21:00 +31°C° 0 mm 3 m/S 749 mmHg 78%
    22:00 +31°C° 0 mm 3 m/S 749 mmHg 80%
    23:00 +30°C° 0 mm 3 m/S 749 mmHg 82%

    21 August, Montag

    Zeit Temperatur Niederschläge Wind Luftdruck Luftfeuchtigkeit
    00:00 +30°C° 0 mm 3 m/S 749 mmHg 84%
    01:00 +30°C° 0,4 mm 3 m/S 749 mmHg 85%
    02:00 +29°C° 0,4 mm 3 m/S 749 mmHg 86%
    03:00 +29°C° 0,4 mm 2 m/S 748 mmHg 87%
    04:00 +29°C° 0,2 mm 2 m/S 749 mmHg 87%
    05:00 +29°C° 0,2 mm 2 m/S 749 mmHg 87%
    06:00 +29°C° 0,2 mm 3 m/S 749 mmHg 87%
    07:00 +30°C° 0 mm 3 m/S 750 mmHg 83%
    08:00 +31°C° 0 mm 3 m/S 750 mmHg 78%
    09:00 +33°C° 0 mm 4 m/S 750 mmHg 74%
    10:00 +34°C° 0 mm 4 m/S 750 mmHg 71%
    11:00 +34°C° 0 mm 4 m/S 749 mmHg 68%
    12:00 +35°C° 0 mm 4 m/S 749 mmHg 65%
    13:00 +35°C° 0,2 mm 3 m/S 748 mmHg 62%
    14:00 +36°C° 0,2 mm 3 m/S 747 mmHg 60%
    15:00 +37°C° 0,2 mm 3 m/S 746 mmHg 58%
    16:00 +36°C° 0,5 mm 3 m/S 746 mmHg 62%
    17:00 +35°C° 0,5 mm 3 m/S 746 mmHg 67%
    18:00 +34°C° 0,5 mm 4 m/S 746 mmHg 71%
    19:00 +33°C° 0,3 mm 3 m/S 747 mmHg 75%
    20:00 +31°C° 0,3 mm 3 m/S 748 mmHg 79%
    21:00 +31°C° 0,3 mm 3 m/S 748 mmHg 83%
    22:00 +30°C° 0,1 mm 3 m/S 748 mmHg 84%
    23:00 +30°C° 0,1 mm 3 m/S 748 mmHg 85%
    Mehr zeigen